Wind_Speed
58 59 61 60 62 63 68 70 69 68 67 67 69 66 59 59 66 65 73 69 67 70 65 60 54 50 52 56 56 57 56 57 57 55 56 57 45 41 41 41 40 40 42 42
52 55 61 65 69 67 70 73 72 72 72 69 71 68 61 61 62 64 62 72 74 67 63 65 60 52 48 50 54 55 57 54 54 53 52 50 42 40 41 40 39 42 41 39
52 54 57 61 66 70 73 74 74 76 76 73 72 72 67 62 60 60 62 58 63 60 60 65 60 51 50 50 51 55 51 48 48 47 46 42 41 38 39 38 39 38 38 34
47 43 46 50 58 61 69 71 74 78 80 78 74 73 70 64 60 57 53 55 54 53 47 49 49 48 49 48 48 48 46 45 41 40 39 37 36 37 37 38 34 32 31 28
31 35 33 36 33 34 45 54 66 73 79 80 77 77 68 66 62 53 49 44 45 43 41 42 43 44 46 46 46 42 38 36 34 33 30 32 35 35 35 34 30 30 28 26
25 23 26 26 27 31 30 32 37 59 51 66 79 68 69 62 58 52 46 40 39 38 41 39 41 43 42 41 40 37 32 29 27 27 29 32 33 33 33 29 29 27 27 26
15 21 25 26 30 25 25 23 29 35 51 64 76 59 71 60 54 49 47 42 39 38 36 38 39 40 38 37 36 31 29 26 26 26 28 31 31 32 28 28 26 26 26 27
18 20 19 15 12 17 25 20 28 28 34 43 55 54 69 61 43 48 48 41 39 38 38 38 38 38 32 29 27 29 27 24 26 28 29 29 31 27 27 25 24 25 27 25
21 17 20 14 17 15 21 26 25 32 27 32 37 40 65 58 52 40 31 41 38 39 41 38 37 32 27 27 27 27 25 26 27 27 28 30 26 26 25 23 23 26 24 25
17 21 18 15 14 9 9 26 24 25 27 15 26 32 60 58 53 43 32 31 39 43 42 37 31 29 28 28 29 25 25 26 25 26 27 24 24 24 22 22 24 22 24 26
16 19 15 17 14 8 10 18 16 23 28 18 19 25 39 49 52 46 35 27 20 32 36 37 35 32 28 30 25 24 23 24 25 22 20 21 21 20 21 22 22 23 26 25
18 16 16 14 19 19 15 19 24 27 23 25 20 15 42 56 50 45 50 41 26 24 28 30 32 32 30 24 23 23 23 23 20 19 19 19 19 20 21 20 23 25 22 19
18 17 15 10 10 18 16 10 23 20 29 33 24 11 29 47 49 48 44 46 41 31 23 20 28 26 24 24 24 21 20 21 20 20 19 18 19 21 19 20 20 18 19 19
19 17 17 16 17 15 15 13 12 17 26 30 34 34 18 33 43 45 43 46 46 38 29 27 22 26 26 24 23 20 19 21 20 19 17 18 19 19 18 19 20 20 20 19
19 13 16 17 15 16 15 18 18 17 18 23 28 35 32 44 45 46 41 45 51 44 39 30 28 26 25 24 21 20 20 19 18 17 16 18 18 17 18 19 19 19 18 15
7 8 11 13 15 15 14 16 21 24 20 23 18 41 42 47 45 47 43 45 44 43 39 33 28 26 24 22 21 21 21 19 18 15 16 17 17 18 19 19 18 15 13 12
12 5 8 10 16 18 11 11 18 23 27 28 24 38 40 45 46 49 53 48 43 43 39 35 28 25 23 22 23 21 20 18 15 15 17 17 17 18 19 15 12 12 11 11
15 10 8 10 15 13 14 14 16 22 25 29 25 36 47 49 49 51 57 54 49 46 40 32 29 26 25 24 22 21 20 16 15 16 16 15 16 15 10 7 7 8 9 10
11 16 20 23 17 14 17 16 10 19 18 25 21 32 52 53 53 55 55 56 52 46 39 33 31 28 26 24 22 21 17 15 15 15 13 13 13 11 9 4 3 6 7 10
13 12 7 10 13 14 9 9 13 8 8 14 20 40 57 54 53 52 57 58 54 47 38 34 30 28 27 25 22 19 15 15 14 13 11 8 8 11 8 7 5 3 6 9
13 9 11 16 15 15 19 16 10 12 6 11 24 46 57 56 49 54 56 58 52 45 38 36 31 28 27 24 21 17 16 14 13 12 9 7 6 6 7 6 4 3 4 9
16 14 13 11 15 19 21 17 9 10 12 10 25 49 56 58 51 56 58 56 50 44 38 35 31 29 25 22 20 17 15 13 12 11 10 8 5 4 6 8 7 6 5 8
17 15 16 12 10 12 13 10 1 7 9 21 30 50 60 58 55 58 59 54 48 42 38 36 32 27 23 22 20 17 14 13 12 11 9 8 6 5 4 5 3 3 7 11
21 15 18 12 7 9 13 3 4 7 18 30 36 55 62 58 57 61 59 53 49 44 40 35 30 25 23 21 19 15 13 13 12 10 7 7 5 5 4 6 5 4 7 12
22 24 22 11 5 8 13 10 12 12 27 38 43 55 64 60 57 67 58 53 47 42 37 33 29 27 24 22 18 15 14 12 11 9 7 6 5 2 3 6 6 8 10 13
23 24 21 17 10 9 13 13 14 15 26 41 47 52 67 60 52 60 60 52 46 43 34 30 29 28 24 23 18 16 15 12 10 9 8 8 7 5 3 5 6 10 14 14
Wind_Direction
259 254 252 252 254 253 248 248 247 245 243 245 247 246 239 241 239 242 242 241 239 239 241 243 252 256 261 263 265 265 263 268 271 273 272 275 286 286 286 291 294 293 291 290
262 259 256 255 253 251 248 248 246 246 245 243 245 244 241 239 238 240 241 243 242 243 244 246 249 258 260 259 261 260 261 267 270 269 271 278 282 280 285 290 291 290 286 283
282 277 273 264 259 253 249 244 241 243 243 242 242 242 240 238 240 240 242 247 243 243 249 247 250 251 254 256 257 258 260 265 269 272 276 277 278 280 286 287 287 287 283 285
289 282 275 268 264 257 248 243 238 236 237 240 241 243 239 239 237 239 240 243 242 248 256 240 240 246 250 253 254 257 262 269 275 274 274 274 276 283 284 285 284 281 279 279
291 275 268 264 262 259 254 243 237 234 233 233 236 240 234 237 237 238 241 242 245 243 242 239 242 245 248 251 256 259 266 270 268 266 269 273 278 279 280 280 277 275 278 282
284 260 265 270 267 263 263 248 245 233 233 233 231 235 233 235 237 237 238 237 236 231 234 236 237 240 244 250 255 260 266 262 263 267 270 272 272 277 278 273 273 277 283 282
270 265 267 267 270 259 259 240 239 238 230 232 227 231 230 231 233 232 235 231 228 228 227 231 233 239 244 248 256 261 253 256 260 266 264 265 273 274 268 268 274 279 279 281
270 260 277 275 249 262 253 239 229 230 239 242 230 229 227 225 231 233 232 229 226 224 226 228 231 237 244 248 252 245 246 251 256 258 265 269 268 261 261 268 272 275 278 280
276 280 291 260 289 259 241 227 228 226 233 225 233 236 220 220 220 222 226 230 224 226 227 227 230 235 239 241 239 240 246 248 253 261 263 262 257 253 262 267 270 275 276 279
292 284 291 285 302 258 264 229 231 225 235 237 217 223 212 218 218 208 211 211 219 221 225 225 228 232 235 233 237 243 239 247 254 257 259 255 247 255 261 264 269 270 274 277
295 289 284 289 289 246 288 220 247 227 210 200 215 221 211 210 216 208 195 197 200 215 219 222 226 226 226 230 229 231 242 244 248 250 249 249 254 256 258 264 265 269 273 279
279 286 280 277 265 263 264 228 202 213 212 200 175 171 214 205 211 212 207 208 196 182 196 197 202 215 220 214 221 229 234 237 235 239 244 250 254 252 258 259 266 272 274 276
279 277 275 283 276 260 274 223 228 227 215 202 214 180 205 205 208 213 207 204 201 186 189 204 211 208 206 212 217 221 228 231 234 240 241 248 247 252 254 262 268 271 275 278
277 269 266 257 245 279 263 257 252 222 223 216 212 194 203 188 200 208 207 202 197 200 209 215 205 198 200 208 211 215 225 231 235 234 241 244 246 247 258 267 270 271 271 273
280 274 264 246 253 262 265 259 258 251 240 238 220 220 213 184 190 195 195 192 197 204 212 204 196 194 198 202 207 219 223 225 229 234 242 241 244 250 263 271 271 270 268 267
306 264 252 239 251 255 266 261 258 258 257 254 234 210 181 180 185 188 183 181 185 194 197 193 189 191 195 199 210 214 223 226 230 239 235 243 246 254 267 273 271 268 261 262
345 295 243 229 246 264 275 242 247 254 253 255 235 187 184 177 184 182 181 180 187 189 191 185 188 192 196 203 211 219 223 226 233 231 239 245 250 261 271 266 264 262 253 240
298 309 274 264 270 279 270 265 250 250 250 252 240 195 184 176 179 177 186 187 182 188 188 185 187 195 199 206 215 218 221 225 226 236 240 245 256 267 244 250 256 255 242 223
321 295 288 307 320 302 286 298 296 249 255 250 231 196 184 177 171 177 184 179 182 186 185 187 189 197 204 206 212 218 218 218 227 234 240 248 256 232 233 251 273 256 224 211
309 321 9 338 328 341 10 289 276 250 231 249 216 192 181 173 165 173 181 177 183 184 186 191 194 198 202 206 212 215 211 218 227 232 239 246 242 230 240 245 276 291 216 205
334 342 349 355 340 345 340 328 278 254 223 231 207 187 181 161 166 173 178 178 182 183 188 192 193 192 202 207 209 206 209 218 221 229 225 230 228 229 237 242 240 258 218 212
5 3 8 356 350 335 329 325 281 232 227 202 195 184 173 169 168 171 176 178 180 184 189 190 191 194 201 205 202 198 210 211 220 223 225 234 236 248 240 235 234 254 235 202
356 360 340 323 334 306 344 355 287 231 212 168 175 176 174 172 168 173 177 178 179 189 186 190 187 192 199 204 195 195 207 208 218 220 229 245 241 246 224 214 214 211 202 190
338 345 340 335 318 343 344 354 152 183 168 154 164 174 176 175 169 173 176 178 184 188 189 188 187 189 198 198 191 195 203 210 217 215 228 241 216 210 202 205 199 175 183 185
334 339 342 345 330 326 20 118 135 158 161 152 164 173 177 180 172 169 179 183 185 190 192 189 188 191 195 189 186 191 198 205 213 216 222 212 181 163 190 185 195 201 175 172
332 333 343 359 347 15 75 120 151 158 164 156 167 170 176 180 181 171 174 183 187 192 185 187 192 194 191 185 186 191 192 197 204 210 205 177 141 108 126 148 148 176 169 166
Height
5692 5696 5693 5689 5689 5698 5699 5697 5704 5711 5715 5716 5719 5729 5745 5750 5753 5758 5763 5770 5776 5780 5788 5790 5795 5800 5801 5800 5800 5799 5798 5798 5796 5796 5795 5795 5798 5797 5794 5792 5790 5788 5786 5783
5675 5676 5670 5670 5672 5677 5676 5680 5689 5692 5696 5704 5706 5716 5729 5731 5740 5745 5751 5754 5761 5769 5776 5780 5786 5789 5790 5789 5788 5788 5787 5789 5788 5787 5787 5788 5790 5789 5787 5786 5783 5781 5778 5776
5652 5650 5644 5647 5648 5654 5656 5659 5670 5672 5677 5684 5690 5696 5709 5718 5726 5733 5738 5745 5750 5759 5765 5770 5775 5778 5777 5776 5778 5776 5778 5780 5780 5781 5781 5781 5781 5782 5781 5778 5776 5774 5771 5770
5633 5627 5623 5622 5624 5629 5632 5640 5645 5651 5656 5667 5674 5681 5693 5705 5712 5720 5729 5733 5740 5746 5752 5757 5761 5763 5765 5767 5767 5768 5771 5772 5772 5771 5772 5773 5774 5774 5773 5770 5769 5767 5765 5764
5620 5611 5609 5609 5612 5612 5612 5619 5622 5630 5637 5646 5657 5659 5684 5690 5700 5712 5719 5726 5730 5737 5740 5743 5748 5752 5753 5756 5758 5760 5763 5764 5763 5764 5765 5767 5767 5767 5766 5764 5762 5761 5760 5758
5605 5602 5601 5602 5602 5602 5603 5605 5608 5613 5621 5622 5644 5645 5667 5680 5692 5701 5708 5714 5718 5723 5728 5734 5738 5741 5745 5748 5750 5752 5755 5756 5756 5757 5759 5760 5760 5759 5759 5757 5756 5755 5753 5752
5600 5598 5597 5595 5592 5594 5594 5597 5601 5606 5605 5605 5635 5630 5652 5670 5679 5690 5695 5702 5708 5714 5721 5724 5729 5733 5737 5740 5743 5745 5746 5748 5749 5750 5752 5753 5752 5752 5751 5751 5750 5749 5747 5746
5594 5595 5592 5588 5586 5589 5588 5592 5596 5600 5606 5610 5614 5614 5646 5661 5669 5678 5686 5692 5699 5705 5711 5715 5721 5725 5730 5733 5735 5737 5739 5741 5743 5744 5745 5745 5745 5745 5745 5745 5744 5743 5742 5740
5589 5589 5587 5584 5583 5584 5584 5583 5590 5592 5593 5596 5609 5612 5637 5652 5660 5668 5675 5682 5690 5696 5700 5708 5714 5719 5723 5726 5728 5730 5733 5735 5736 5737 5738 5738 5739 5739 5739 5739 5738 5737 5736 5734
5586 5583 5582 5581 5578 5579 5578 5583 5586 5587 5588 5593 5604 5610 5629 5638 5648 5660 5667 5672 5679 5684 5691 5700 5706 5711 5715 5719 5721 5724 5726 5728 5730 5731 5731 5732 5733 5734 5734 5734 5733 5732 5731 5729
5582 5580 5581 5578 5578 5576 5576 5576 5578 5581 5587 5589 5603 5611 5613 5623 5636 5650 5659 5665 5672 5677 5683 5691 5698 5703 5708 5712 5715 5718 5720 5722 5724 5725 5726 5728 5729 5729 5729 5729 5728 5727 5726 5724
5577 5575 5575 5575 5573 5574 5573 5572 5573 5577 5584 5588 5588 5599 5601 5616 5628 5640 5651 5658 5668 5672 5678 5684 5690 5697 5701 5706 5709 5712 5715 5717 5719 5721 5722 5723 5724 5724 5724 5724 5723 5722 5721 5719
5573 5572 5571 5572 5573 5570 5570 5569 5572 5575 5576 5582 5585 5596 5596 5607 5620 5629 5641 5653 5662 5668 5674 5680 5685 5691 5697 5701 5705 5708 5710 5713 5715 5717 5718 5719 5719 5720 5720 5719 5718 5717 5716 5714
5567 5567 5567 5567 5566 5564 5565 5566 5567 5569 5570 5576 5580 5584 5595 5601 5610 5620 5633 5643 5655 5663 5669 5675 5681 5686 5691 5696 5700 5703 5706 5709 5710 5712 5713 5714 5715 5715 5715 5714 5713 5712 5711 5710
5561 5562 5561 5562 5563 5562 5562 5562 5562 5562 5564 5566 5574 5575 5582 5590 5600 5611 5626 5637 5648 5657 5664 5671 5677 5682 5687 5692 5695 5698 5701 5703 5705 5707 5708 5710 5711 5711 5711 5709 5708 5707 5706 5706
5558 5557 5557 5558 5559 5558 5558 5558 5558 5557 5558 5557 5561 5565 5573 5582 5595 5607 5622 5634 5642 5651 5659 5666 5673 5678 5682 5687 5691 5695 5697 5699 5701 5703 5705 5706 5706 5706 5706 5705 5703 5702 5702 5703
5558 5556 5555 5555 5554 5554 5554 5553 5552 5553 5552 5552 5554 5567 5571 5580 5590 5603 5616 5629 5639 5647 5654 5663 5669 5675 5680 5684 5688 5691 5694 5696 5698 5700 5701 5701 5702 5702 5701 5700 5699 5699 5700 5701
5558 5555 5552 5552 5550 5550 5548 5547 5546 5545 5546 5547 5548 5558 5567 5576 5584 5599 5610 5623 5634 5643 5652 5660 5666 5671 5676 5680 5685 5688 5690 5693 5696 5697 5698 5698 5698 5698 5698 5698 5697 5697 5698 5699
5555 5552 5550 5548 5546 5545 5542 5539 5539 5538 5541 5539 5546 5553 5562 5570 5582 5597 5606 5619 5630 5640 5650 5656 5663 5668 5674 5678 5683 5685 5688 5691 5693 5694 5695 5695 5695 5695 5696 5696 5695 5695 5696 5697
5554 5551 5549 5545 5542 5539 5537 5535 5534 5534 5536 5535 5543 5548 5557 5568 5585 5594 5604 5616 5627 5638 5646 5655 5661 5666 5672 5677 5681 5683 5686 5689 5691 5692 5693 5692 5692 5693 5693 5693 5694 5694 5694 5696
5553 5550 5547 5543 5539 5537 5534 5532 5530 5530 5534 5531 5538 5548 5558 5571 5581 5591 5603 5615 5626 5636 5645 5653 5659 5665 5671 5675 5678 5682 5685 5687 5689 5690 5690 5690 5691 5690 5690 5691 5692 5693 5693 5694
5552 5549 5545 5542 5538 5536 5531 5527 5525 5526 5527 5528 5535 5548 5562 5570 5580 5592 5603 5614 5626 5635 5645 5651 5657 5663 5669 5673 5677 5680 5683 5685 5687 5688 5688 5689 5689 5688 5688 5688 5690 5691 5692 5693
5552 5548 5544 5540 5537 5533 5529 5525 5523 5522 5523 5526 5534 5548 5560 5571 5581 5593 5604 5615 5625 5634 5643 5649 5656 5662 5667 5671 5675 5678 5681 5683 5685 5686 5687 5687 5687 5687 5686 5687 5687 5689 5690 5691
5549 5546 5541 5537 5534 5530 5526 5522 5522 5522 5523 5527 5537 5549 5561 5571 5580 5593 5605 5615 5624 5632 5641 5648 5654 5660 5665 5670 5673 5676 5679 5682 5684 5685 5686 5686 5686 5687 5686 5687 5687 5688 5689 5690
5547 5543 5538 5535 5532 5528 5524 5522 5523 5524 5525 5530 5540 5551 5564 5573 5580 5592 5606 5617 5625 5633 5641 5647 5652 5658 5663 5668 5672 5675 5678 5680 5683 5684 5685 5687 5687 5686 5686 5686 5686 5687 5689 5691
5545 5541 5536 5532 5529 5526 5523 5521 5524 5525 5529 5534 5542 5554 5566 5575 5583 5590 5604 5615 5624 5633 5640 5645 5651 5657 5662 5666 5670 5673 5676 5679 5682 5684 5685 5687 5687 5687 5686 5685 5685 5686 5688 5691